This demonstration page uses our WeatherBlox Daily Observations layout. Learn more.

Left ArrowRight Arrow

Hourly Observations for April 29, 2015

Temp ( °F °C ) Dew Point ( °F °C ) Humidity (%) Winds ( mph kmh ) Pressure ( in mb ) Visibility ( mi km ) Precip ( " mm )
12:51 am 00:51 Clear 59 15 33 0.6 38 38 SSE 7 11 30.00 1016 10 16 N/A
1:51 am 01:51 Clear 56 13.3 34 1.1 44 44 ESE 7 11 29.99 1016 10 16 N/A
2:51 am 02:51 Clear 60 15.6 34 1.1 38 38 E 10 17 29.99 1016 10 16 N/A
3:51 am 03:51 Clear 61 16.1 30 -1.1 31 31 E 12 19 29.99 1016 10 16 N/A
4:51 am 04:51 Clear 59 15 30 -1.1 33 33 E 10 17 30.00 1016 10 16 N/A
5:51 am 05:51 Sunny 56 13.3 34 1.1 44 44 SSE 12 19 30.02 1017 10 16 N/A
6:51 am 06:51 Sunny 59 15 40 4.4 49 49 SE 13 20 30.03 1017 10 16 N/A
7:51 am 07:51 Sunny 63 17.2 36 2.2 37 37 SSE 10 17 30.03 1017 10 16 N/A
8:51 am 08:51 Sunny 69 20.6 32 undefined 25 25 E 13 20 30.02 1017 10 16 N/A
9:51 am 09:51 Sunny 72 22.2 26 -3.3 18 18 SE 15 24 30.00 1016 10 16 N/A
10:51 am 10:51 Sunny 75 23.9 26 -3.3 16 16 SE 13 20 29.98 1015 10 16 N/A
11:51 am 11:51 Sunny 76 24.4 24 -4.4 14 14 VRB 7 11 29.95 1014 10 16 N/A
12:51 pm 12:51 Sunny 78 25.6 21 -6.1 12 12 SE 13 20 29.91 1013 10 16 N/A
1:51 pm 13:51 Sunny 81 27.2 20 -6.7 10 10 ESE 14 22 29.88 1012 10 16 N/A
2:51 pm 14:51 Sunny 82 27.8 14 -10 8 8 SSE 14 22 29.85 1011 10 16 N/A
3:51 pm 15:51 Sunny 82 27.8 16 -8.9 8 8 S 10 17 29.81 1010 10 16 N/A
4:51 pm 16:51 Sunny 83 28.3 18 -7.8 9 9 S 13 20 29.80 1009 10 16 N/A
5:51 pm 17:51 Sunny 81 27.2 13 -10.6 7 7 S 10 17 29.80 1009 10 16 N/A
6:51 pm 18:51 Sunny 77 25 16 -8.9 10 10 S 6 9 29.80 1009 10 16 N/A
7:51 pm 19:51 Clear 71 21.7 19 -7.2 14 14 SW 3 6 29.82 1010 10 16 N/A
8:51 pm 20:51 Clear 66 18.9 21 -6.1 18 18 ESE 6 9 29.83 1010 10 16 N/A
9:51 pm 21:51 Clear 64 17.8 20 -6.7 18 18 E 8 13 29.85 1011 10 16 N/A
10:51 pm 22:51 Clear 62 16.7 21 -6.1 21 21 S 7 11 29.85 1011 10 16 N/A
11:51 pm 23:51 Clear 63 17.2 20 -6.7 19 19 SSE 9 15 29.85 1011 10 16 N/A

Powered by AerisWeather